Location: Alando
(42.3054°N, 9.2895°E)
Time: 00:35:26
(UTC+00:00)

Meteor 1-16 Rocket - Pass Details

Date: 09 April 2020
Orbit: 790 x 907 km, 81.2° (Epoch: 05 June)

Event Time Altitude Azimuth Distance (km) Brightness Sun altitude
Rises 18:29:18 0° 183° (S) 3,301 7.1 -6.4°
Reaches altitude 10° 18:31:38 10° 181° (S) 2,387 6.4 -6.8°
Maximum altitude 18:37:01 75° 97° (E) 858 4.1 -7.8°
Drops below altitude 10° 18:42:36 10° 13° (NNE) 2,477 6.7 -8.8°
Sets 18:45:05 0° 12° (NNE) 3,436 7.5 -9.2°
